カタログに戻る

ONEWEB-0677

運用中通信PO
NORAD 56713·PAYLOAD·🇬🇧 United Kingdom

打ち上げ May 20, 2023 から Vandenberg Space Force Base

Loading…

次のパス (今後24時間)

TLE

最新Source: CelesTrak SupGP

元期: Sep 14, 2026, 19:31 UTC

1 56713C 23068D   26257.81370787  .00001094  00000+0  26946-2 0  2573
2 56713  87.9142 256.5557 0002161  99.8477 296.0874 13.20770477    19

AllMySatでONEWEB-0677をリアルタイム追跡

Download on the App Store